Starlink 37144

operational
NORAD ID: 68557 Int'l Des: 2026-070 Owner: SPXS Country: US Constellation: starlink
LEOCIRCULAR

Über Starlink 37144

Beschreibung wird geladen...

Live-Position

3D-Globus wird geladen...

Nächste Überflüge

Höhenverlauf

Altitude vs Time

uPlot chart will show altitude changes over time

Zweizeiliger Elementsatz

1 68557C 26070Q 26093.93798611 -.00237170 00000+0 -29041-3 0 935
2 68557 53.1618 259.3999 0007254 286.7439 146.9793 16.07321208 10
Epoch: 3. Apr. 2026 • Age: 30 hours

Aktueller Status

Höhe 257.0 km
Geschwindigkeit 7.75 km/s
Subsatellitenpunkt 1.57°N, 147.84°E
Startdatum 2. Apr. 2026
Alter 1 days
Typ internet

Technische Details

Klassifizierung Payload
Masse 575.00 kg
Trockenmasse 530.00 kg
Gesamtmasse 575.00 kg
Länge 0.30 m
Durchmesser 4.10 m
Spannweite 29.00 m
Form Box + pan
Hersteller SPXS
Bus-Typ Starlink V2MO
Phasenstatus In Orbit
Besitzer/Staat SPXS/US

Große Konstellationen

Loading constellations...